User: anonymous   Login
Location: Unspecified
(0.0000°N, 0.0000°E)
Time: 06:57:43
(UTC+00:00)
Language:

Meteosat 2 - Orbit

View from above orbital plane
View from above orbital plane
View from above satellite
View from above satellite

Ground track
Ground track

The orbit data is extracted from the following two-line orbital elements,

1 12544U 81057A   17202.09178089 -.00000157 +00000-0 +00000-0 0  9995
2 12544 014.9714 347.3439 0032244 294.4729 064.1382 00.98725754091763
Epoch (UTC): 21 July 2017 02:12:09
Eccentricity: 0.0032244
inclination: 14.9714°
perigee height: 36088 km
apogee height: 36362 km
right ascension of ascending node: 347.3439°
argument of perigee: 294.4729°
revolutions per day: 0.98725754
mean anomaly at epoch: 64.1382°
orbit number at epoch: 9176

The dashed part of the orbit path shows where the satellite is in the earth's shadow,  

DLR